Location: The Saddle
(36.8333°N, 80.3417°W)
Time: 00:44:29
(UTC-05:00)

A-11 Canister half - Visible Passes

Search period start: 10 December 2023 00:00
Search period end: 20 December 2023 00:00
Orbit: 1525 x 1683 km, 47.3° (Epoch: 09 December)

Date Brightness Start Highest point End Pass type
(mag) Time Alt. Az. Time Alt. Az. Time Alt. Az.
10 Dec 9.5 19:15:57 10° W 19:25:52 55° NNW 19:29:50 37° NE visible
10 Dec 10.3 21:23:02 10° WNW 21:28:07 31° NW 21:28:07 31° NW visible
11 Dec 9.5 18:54:05 10° W 19:04:02 56° NNW 19:09:18 30° NE visible
11 Dec 10.1 21:01:12 10° WNW 21:07:35 37° NW 21:07:35 37° NW visible
12 Dec 9.5 18:32:14 10° W 18:42:12 57° NNW 18:48:46 24° NE visible
12 Dec 9.8 20:39:21 10° WNW 20:47:03 43° NNW 20:47:03 43° NNW visible
12 Dec 11.4 22:45:20 10° WNW 22:45:20 10° WNW 22:45:20 10° WNW visible
13 Dec 9.5 18:10:23 10° W 18:20:22 59° NNW 18:28:13 18° NE visible
13 Dec 9.6 20:17:30 10° WNW 20:26:31 46° N 20:26:31 46° N visible
13 Dec 11.1 22:23:33 10° WNW 22:24:48 15° NW 22:24:48 15° NW visible
14 Dec 9.5 17:48:33 10° W 17:58:32 60° NNW 18:07:41 13° ENE visible
14 Dec 9.5 19:55:39 10° WNW 20:05:22 47° N 20:05:58 46° NNE visible
14 Dec 10.8 22:01:45 10° WNW 22:04:15 20° NW 22:04:15 20° NW visible
15 Dec 9.5 17:26:42 10° WSW 17:36:42 62° NNW 17:46:47 10° ENE visible
15 Dec 9.5 19:33:47 10° WNW 19:43:30 46° N 19:45:26 43° NNE visible
15 Dec 10.5 21:39:57 10° WNW 21:43:43 26° NW 21:43:43 26° NW visible
16 Dec 9.6 19:11:57 10° WNW 19:21:38 46° N 19:24:55 37° NE visible
16 Dec 10.2 21:18:10 10° WNW 21:23:13 34° NW 21:23:13 34° NW visible
17 Dec 9.6 18:50:06 10° WNW 18:59:47 46° N 19:04:26 30° NE visible
17 Dec 9.9 20:56:22 10° WNW 21:02:43 42° NW 21:02:43 42° NW visible
18 Dec 9.6 18:28:13 10° WNW 18:37:55 46° N 18:43:57 24° ENE visible
18 Dec 9.5 20:34:33 10° WNW 20:42:15 52° NNW 20:42:15 52° NNW visible
18 Dec 11.3 22:40:05 10° WNW 22:40:33 12° WNW 22:40:33 12° WNW visible
19 Dec 9.6 18:06:22 10° WNW 18:16:03 47° N 18:23:31 18° ENE visible
19 Dec 9.3 20:12:45 10° WNW 20:21:49 59° N 20:21:49 59° N visible
19 Dec 11.0 22:18:16 10° WNW 22:20:07 17° WNW 22:20:07 17° WNW visible
